RH
76 85 85 80 67 56 55 55 52 48 55 63 74 71 64 80 80 79 62 58 78 85 83 76 80 75 86 71 50 25 23 41 58 32 40 37 37 39 54 84 90 54 54
80 88 84 81 70 60 57 54 49 45 45 56 70 66 60 85 78 79 52 40 74 75 90 94 73 77 72 38 26 24 23 23 25 25 33 24 24 37 61 76 65 55 57
80 95 90 79 72 62 57 51 40 32 38 49 58 53 70 87 79 78 33 30 58 87 92 81 58 80 54 31 25 25 25 24 30 48 67 39 22 25 35 57 86 59 54
81 96 99 82 73 61 57 46 37 44 45 56 56 54 78 80 81 63 22 60 88 98 81 82 68 67 29 28 29 31 33 35 43 73 70 72 27 24 26 30 49 78 87
81 89 99 85 68 61 55 38 56 62 59 61 66 72 81 79 76 37 25 88 95 96 42 42 42 32 31 33 36 36 36 36 53 79 85 76 38 32 30 29 29 39 54
88 87 96 84 69 62 50 40 68 63 56 66 69 78 84 87 68 21 45 98 99 43 37 37 34 33 34 35 36 35 36 40 71 82 71 44 35 36 35 34 31 29 29
88 96 93 80 74 64 45 41 72 71 74 70 78 86 94 86 45 28 86 100 88 32 34 34 36 38 39 39 41 39 39 48 77 83 88 42 40 41 40 40 39 37 36
92 92 96 78 77 67 45 46 73 79 76 84 90 96 96 76 34 33 74 97 51 38 40 40 41 41 40 40 39 40 40 44 78 82 85 41 45 48 47 46 45 44 43
93 90 100 74 85 68 64 52 74 83 91 91 98 96 99 67 28 30 37 79 38 41 44 44 42 42 42 42 40 40 40 47 78 72 82 60 47 50 53 54 53 52 50
98 90 96 91 90 66 80 75 52 82 99 100 100 100 100 78 34 33 36 53 44 48 50 47 44 42 42 42 42 40 40 45 81 59 84 52 52 52 54 55 56 58 59
84 99 100 99 99 91 85 97 64 40 54 99 99 100 99 69 35 34 42 42 48 51 52 48 42 40 40 39 40 40 43 71 70 74 81 53 53 55 57 59 61 64 65
84 85 87 97 94 85 93 97 66 42 32 50 86 91 81 49 77 88 43 44 45 48 47 41 38 39 40 51 38 38 47 67 68 71 75 54 54 57 60 66 69 72 72
72 73 76 100 93 78 89 97 88 77 81 78 86 85 81 87 82 91 38 39 42 40 39 40 39 39 59 68 69 69 67 69 67 72 66 57 58 61 63 70 78 79 78
58 64 51 90 94 76 82 89 81 78 76 82 87 83 81 86 92 91 51 43 49 42 78 62 77 73 52 56 71 72 76 77 80 79 78 65 63 67 78 83 85 84 78
57 55 54 99 92 89 76 88 86 77 79 78 83 85 87 88 85 87 86 78 70 73 72 72 70 69 67 67 72 79 80 81 81 82 85 82 72 79 84 84 81 79 80
54 59 66 98 87 96 89 87 91 92 81 89 84 78 79 75 61 55 56 52 54 50 64 72 70 66 65 76 77 75 76 79 81 83 84 86 85 83 85 84 83 80 74
75 75 91 96 89 92 89 90 90 87 85 90 87 54 58 48 40 34 41 46 72 79 73 77 74 75 77 78 77 75 79 80 80 79 80 81 83 84 81 76 75 79 74
62 58 60 81 80 50 69 97 93 91 93 91 81 60 42 43 43 45 68 75 90 87 72 86 79 86 82 78 73 72 80 82 79 77 74 75 78 80 84 88 82 54 53
98 86 72 83 89 47 70 95 99 97 94 95 99 92 82 64 56 46 46 90 93 83 74 84 86 85 80 80 75 76 79 77 79 74 72 73 77 84 92 73 58 41 47
96 86 82 73 89 58 43 68 70 68 92 86 91 93 88 77 66 52 79 90 91 82 88 92 85 84 84 76 78 80 82 79 78 75 73 76 80 84 61 59 41 72 70
99 87 72 90 89 80 74 63 65 67 70 75 91 92 72 80 76 79 80 81 93 98 96 92 90 90 87 88 85 85 77 75 75 74 77 80 77 75 69 65 46 56 60
99 88 76 82 82 82 81 79 75 84 82 87 70 70 75 63 63 65 72 75 75 78 77 79 92 93 91 90 86 91 88 75 70 69 78 80 80 68 70 72 47 53 42
100 94 86 64 72 82 86 78 77 82 73 83 82 81 81 70 73 75 70 64 67 76 76 72 88 92 99 93 91 89 85 75 75 71 77 83 60 66 72 55 52 49 38
99 100 96 72 71 82 98 93 90 78 78 79 78 81 81 81 76 75 67 63 71 72 73 73 73 75 88 99 91 86 82 75 78 78 78 79 66 55 58 62 63 58 42
96 97 98 98 86 68 89 91 80 85 80 86 86 90 80 63 83 84 80 84 80 80 64 75 71 64 74 89 96 85 80 83 81 79 92 78 54 50 47 52 52 50 65
78 87 89 96 87 81 81 80 93 84 93 98 91 82 81 94 80 82 71 80 74 80 62 66 77 78 90 94 93 82 77 74 65 64 81 60 44 43 53 59 61 60 55
Wind_Speed
18 23 26 22 21 18 17 16 16 18 20 19 18 15 13 15 15 14 14 14 16 16 16 16 16 19 16 16 16 17 18 19 18 18 17 17 16 16 16 16 9 10 9
18 24 28 23 21 19 16 15 15 18 21 22 20 18 16 17 15 16 15 18 20 16 15 18 19 19 14 16 17 17 18 18 17 17 16 15 16 16 16 14 13 13 12
19 25 28 24 21 19 16 15 15 17 22 23 22 20 19 18 16 16 15 18 21 16 17 18 21 18 16 16 16 16 17 17 18 20 17 11 13 14 14 13 14 13 12
22 23 26 25 22 19 16 14 15 18 23 24 23 23 22 18 17 16 18 23 21 18 19 19 19 16 17 16 16 16 16 16 15 18 11 10 11 12 13 12 12 14 12
21 21 24 26 23 19 16 16 18 21 26 25 25 24 23 20 18 16 21 23 20 19 20 21 19 17 15 15 15 14 14 14 16 12 11 10 10 12 11 11 10 9 9
20 21 25 25 22 19 17 19 20 23 26 27 25 25 24 21 19 20 24 22 20 21 23 21 18 16 15 14 13 12 12 12 14 10 10 9 10 10 11 11 10 9 8
22 25 24 25 22 20 19 21 22 23 25 26 25 26 24 22 19 23 23 21 20 24 22 20 18 15 13 12 11 10 10 11 8 9 8 7 8 9 9 10 10 9 8
20 23 22 25 23 20 21 22 24 22 24 25 27 26 22 21 21 24 24 21 21 22 20 18 16 13 11 10 9 8 8 9 7 7 6 6 6 7 8 8 8 8 8
23 24 20 26 23 21 22 23 24 22 22 25 26 26 22 20 21 24 25 22 22 21 19 16 14 12 9 8 7 6 6 7 8 4 5 2 4 5 6 7 7 7 7
23 22 19 24 24 23 24 24 24 24 23 26 27 25 21 19 21 23 24 22 21 19 17 15 12 10 7 6 5 4 4 5 3 3 3 1 2 3 4 4 5 5 6
26 23 17 23 22 22 25 24 23 23 25 24 24 22 20 18 22 24 23 23 21 19 16 13 11 8 6 4 3 3 2 4 1 2 2 1 0 1 2 2 3 4 5
34 44 33 27 27 25 27 27 23 23 25 24 23 24 16 18 17 15 23 22 20 17 15 12 9 7 4 1 2 2 2 3 2 2 6 3 2 2 1 2 3 4 5
47 42 49 29 34 30 31 27 21 20 19 21 21 19 17 18 20 20 21 21 18 16 12 10 8 6 3 6 6 2 5 4 2 3 6 4 4 4 3 3 4 5 6
38 46 50 39 39 34 33 29 23 21 21 21 17 20 20 19 19 15 16 16 14 13 8 8 6 7 8 6 5 4 5 3 2 4 8 6 5 5 4 4 6 8 10
30 36 43 36 36 32 33 32 28 23 21 21 24 22 20 18 18 17 15 15 13 11 10 8 9 7 7 6 7 6 5 4 4 5 5 9 8 6 7 8 9 10 12
25 22 22 30 30 22 31 31 27 27 22 20 21 21 19 18 19 18 16 14 13 12 10 9 8 8 7 7 7 7 7 5 6 6 5 9 11 12 11 11 12 12 13
21 20 28 23 26 27 26 27 25 26 24 24 20 20 20 18 18 17 15 14 11 10 9 9 8 9 9 9 8 7 7 6 6 6 7 6 9 13 13 13 15 17 18
29 25 33 20 22 26 30 23 24 23 24 20 19 20 19 17 16 15 13 11 10 10 10 9 8 8 8 7 8 7 7 6 6 7 8 8 8 8 12 14 19 17 18
23 26 40 31 30 26 29 26 22 23 21 17 17 18 20 18 15 14 12 11 11 11 10 9 9 9 9 9 9 9 8 10 8 7 7 8 9 13 13 13 17 17 15
22 20 35 37 29 28 27 28 26 23 19 16 16 15 17 16 15 14 11 11 11 10 8 9 10 10 11 10 10 11 11 10 7 7 8 8 9 13 13 16 17 11 15
22 30 49 38 32 27 26 24 24 24 24 23 24 21 16 13 13 13 14 13 14 12 10 11 11 10 12 11 15 13 12 8 8 9 8 6 6 9 12 12 14 13 10
27 33 40 34 28 24 23 23 19 19 22 21 23 19 12 11 8 8 9 11 16 18 19 17 14 13 15 17 16 12 7 9 8 6 4 6 6 10 10 12 13 14 13
31 33 34 45 31 22 21 20 17 14 13 20 21 18 16 14 9 9 11 10 10 14 12 20 25 20 21 16 17 11 6 6 4 2 5 8 12 11 11 14 13 15 15
28 25 31 38 34 28 18 18 17 14 7 15 17 18 16 16 12 18 13 13 12 10 15 9 9 9 18 21 19 19 15 10 5 9 13 18 18 18 13 15 14 15 16
24 21 15 23 33 37 27 13 13 15 21 15 18 17 15 15 22 18 18 20 17 11 14 15 17 9 14 21 28 24 19 17 17 19 16 12 17 19 22 22 18 16 15
14 8 13 8 18 30 26 21 22 18 26 22 23 21 27 24 22 25 22 26 23 19 18 16 20 25 22 20 23 21 22 23 21 17 21 22 21 23 22 21 19 16 15
Wind_Direction
174 194 179 181 179 180 178 179 180 185 189 190 187 180 181 168 156 149 146 131 125 126 134 134 129 123 110 113 110 101 99 96 98 91 90 89 94 94 94 80 71 82 75
176 192 182 184 183 185 186 188 189 190 191 191 189 185 182 170 161 153 150 143 142 133 133 132 135 120 125 118 110 105 100 98 96 91 83 86 87 92 92 98 86 82 81
180 185 182 186 187 188 191 193 191 188 185 186 185 184 175 171 165 158 152 145 141 139 131 131 132 126 130 117 109 104 100 98 95 81 74 77 87 90 89 93 86 78 81
180 186 181 186 187 188 192 193 185 178 174 180 179 180 173 174 165 159 151 141 141 142 136 132 133 128 121 115 109 105 102 98 98 86 85 81 83 88 91 88 84 90 81
189 193 184 184 186 188 188 186 180 171 169 176 176 175 172 172 165 157 151 143 148 144 140 136 135 129 122 115 110 106 102 98 86 85 94 91 83 85 87 89 92 88 83
182 190 197 188 184 186 185 181 178 170 170 175 175 174 172 168 162 156 152 150 149 146 142 141 138 131 124 119 113 106 102 99 86 84 74 93 88 85 83 82 82 80 77
182 186 199 194 186 184 185 182 177 175 174 176 177 172 169 163 160 159 148 152 150 146 146 144 141 135 129 124 118 110 103 95 93 89 88 86 85 84 81 78 78 76 69
182 198 194 197 189 186 184 182 176 172 178 177 173 171 170 167 164 162 154 154 154 150 150 148 146 141 137 130 124 117 108 101 82 91 96 84 85 83 80 78 75 71 66
193 197 188 195 192 189 183 182 179 178 174 175 171 169 168 167 166 167 162 157 157 155 155 153 151 149 145 140 131 122 113 102 106 109 82 50 82 87 81 73 65 58 50
191 194 194 194 192 189 186 185 182 184 176 171 169 167 174 172 170 170 167 164 163 162 161 161 160 159 156 150 143 131 116 101 99 92 112 103 79 82 76 66 56 45 34
204 159 193 196 183 182 187 182 183 187 191 180 181 183 188 183 173 173 172 171 172 172 172 174 172 170 171 175 177 171 139 94 144 175 216 252 265 60 59 44 34 21 11
241 268 284 206 184 183 192 181 182 184 188 188 194 199 186 180 173 164 180 179 179 182 186 186 185 184 189 224 231 210 129 235 204 209 236 253 259 273 302 354 359 358 354
259 275 250 218 189 184 194 172 170 168 171 176 180 179 169 162 180 187 184 181 184 187 193 199 203 209 197 200 221 217 214 221 220 248 258 268 266 277 291 306 324 327 328
218 257 275 255 189 183 194 170 173 165 167 172 175 164 172 175 174 173 183 183 187 195 189 204 219 216 227 229 221 221 243 224 247 253 274 285 279 277 284 304 317 318 318
214 235 228 210 183 187 186 169 178 168 169 169 171 177 174 178 172 174 179 185 188 194 205 215 216 225 229 228 228 229 235 253 263 263 269 296 288 281 286 300 303 308 308
220 218 246 186 175 197 178 173 177 169 169 173 174 173 176 179 181 180 184 188 197 208 209 211 225 226 225 227 231 236 236 237 248 259 263 290 308 299 290 294 291 292 294
164 168 194 157 180 184 188 176 175 169 176 182 180 181 178 185 187 190 189 198 200 212 212 222 217 219 220 221 229 229 236 233 247 258 273 274 297 306 313 311 299 288 287
215 213 205 228 195 196 192 188 177 177 179 183 186 186 188 188 188 191 190 201 207 214 219 219 220 228 229 234 237 235 233 242 243 260 263 272 288 288 288 303 297 301 292
206 198 190 190 197 197 187 188 180 183 184 186 191 194 190 194 200 202 205 201 211 220 232 227 224 226 231 235 233 227 228 238 232 252 268 276 279 285 291 296 303 310 301
209 193 175 170 190 194 196 193 190 187 180 180 189 181 192 190 194 195 199 200 214 225 228 238 243 237 231 234 236 234 236 255 254 258 264 265 277 280 306 304 313 315 316
200 178 169 177 182 186 187 189 186 182 180 184 185 178 175 187 203 210 215 221 206 206 218 223 249 245 244 226 234 228 256 240 245 245 248 258 271 304 301 302 309 303 302
204 186 181 192 190 185 186 189 193 187 190 188 185 187 189 189 187 210 227 241 245 248 245 243 236 236 239 232 233 229 232 227 208 225 263 279 291 297 303 295 303 297 305
200 196 187 190 197 186 187 190 198 208 210 219 205 207 212 202 207 229 247 262 263 263 280 270 255 249 257 236 234 222 207 193 191 245 275 253 298 293 284 291 299 293 296
188 181 195 196 202 200 209 211 213 232 218 233 227 221 218 226 250 256 255 255 269 259 254 268 281 284 260 255 218 211 203 192 246 279 290 280 301 293 289 284 290 289 293
176 208 226 189 208 219 227 246 250 248 238 231 230 259 242 254 249 262 270 259 253 247 278 276 259 247 241 259 229 215 218 231 260 276 286 287 284 288 296 294 293 285 276
135 128 187 199 212 214 236 247 247 234 236 240 246 255 239 250 254 266 259 265 264 262 247 240 254 253 249 235 224 228 245 256 265 256 254 272 276 282 287 290 294 289 283